Погода в Верхнем Мамоне

Россия / Воронежская область     50°10′15″N   40°24′03″E
темп.,
°C
ветер,
м/с
пор.,
м/с
влажн.,
%
обл.,
%
осадки,
мм/ч
давл.,
гПа
погр.,
м
7 мая, пт
пт700:00+14ююв41165100 0.0 1011313
03:00+13ююв41071100 0.1 1010254
06:00+12з3687100 0.4 1011277
09:00+13ссз4481100 0.5 1013678
12:00+10ссз578764 0.4 1015419
15:00+15ссз565562 0.4 10151592
18:00+14св455899 0.0 1016525
21:00+9вюв34735 0.0 101846
8 мая, сб
сб800:00+8юв367625 0.0 101796
03:00+7юв367694 0.0 101795
06:00+8юв4877100 0.0 1016184
09:00+13ююв6960100 0.0 1015618
12:00+18ю7958100 0.0 10131428
15:00+19ююз61060100 0.0 10111462
18:00+18ююз61165100 0.1 1010673
21:00+13з479298 0.3 1010202
9 мая, вс
вс900:00+11зсз4893100 0.0 1011368
03:00+7сз61086100 0.3 1015528
06:00+8ссз5988100 0.1 1013677
09:00+7ссз6991100 3.0 1014654
12:00+7с61088100 5.1 1016913
15:00+7с81289100 9.8 10171024
18:00+7с7128799 2.1 10181046
21:00+7с81584100 2.1 1019865
10 мая, пн
пн1000:00+6с81684100 0.0 1020852
03:00+6с91785100 0.0 1020871
06:00+6с111985100 0.3 1020771
09:00+7ссв112086100 1.4 1020748
12:00+7ссв101888100 0.4 1021610
15:00+9ссв101887100 0.4 1021605
18:00+12ссв101883100 0.1 1020637
21:00+11ссв91766100 0.0 1024848
11 мая, вт
вт1100:00+11св101983100 0.0 1021482
03:00+10св81682100 0.1 1021492
06:00+10ссв81590100 1.6 1021413
09:00+11св81591100 2.2 1022754
12:00+11юв3692100 0.2 1023454
15:00+14в4668100 0.2 10241240
18:00+11ссв3595100 2.5 1023198
21:00+10ссз2297100 6.1 102267